Location: El Centro
(32.7920°N, 115.5620°W)
Time: 07:46:30
(UTC-07:00)

Amateur Radio Satellites - All Passes

Search period start: 23 April 2014 07:16
Search period end: 24 April 2014 07:16
Location: El Centro, 32.7920°N, 115.5620°W

Satellite Date Start Highest point End Downlink Frequencies (MHz)
Time Altitude Azimuth
Hamsat 23 Apr 07:44:21 07:47:52 24° 289° (WNW) 07:51:23 145.90 MHz
SO-67 23 Apr 07:57:06 08:00:37 89° 102° (ESE) 08:04:06 435.3500 MHz FM
Sapphire 23 Apr 08:05:33 08:09:04 17° 52° (NE) 08:12:33 437.095 MHz 1200 baud AX-25 AFSK
HO-68 23 Apr 08:25:33 08:28:59 14° 92° (E) 08:32:25 435.675 MHz FM
Saudisat 1A 23 Apr 08:40:43 08:43:26 16° 109° (ESE) 08:46:10 436.775 MHz
PCSat 23 Apr 08:48:51 08:54:00 43° 60° (ENE) 08:59:08 145.825 MHz
PANSAT 23 Apr 08:49:41 08:53:23 43° 183° (S) 08:57:04 not established
JAS-2 23 Apr 08:53:12 08:57:49 27° 290° (WNW) 09:02:52 435.800 - 435.900 CW/SSB, 435.910 FM
Oscar 10/S400 23 Apr 08:53:20 10:24:04 73° 215° (SW) 19:07:15 145.825 - 145.975 CW/USB, Beacon 145.810 USB
RS-15 23 Apr 09:33:56 09:39:07 14° 333° (NNW) 09:44:17 29.354 - 29.394 USB, Beacon 29.352 USB
Oscar 11 23 Apr 09:33:59 09:36:56 18° 95° (E) 09:39:51 145.825 FM, Beacon 2401.500 USB
Sapphire 23 Apr 09:47:32 09:52:50 58° 248° (WSW) 09:58:07 437.095 MHz 1200 baud AX-25 AFSK
KITSAT 1 23 Apr 09:59:16 10:05:05 21° 47° (NE) 10:10:50 435.175 FM
HO-68 23 Apr 10:10:05 10:17:17 82° 287° (WNW) 10:24:28 435.675 MHz FM
Saudisat 1A 23 Apr 10:18:29 10:22:41 40° 303° (WNW) 10:26:54 436.775 MHz
PANSAT 23 Apr 10:30:02 10:33:16 25° 196° (SSW) 10:36:30 not established
PCSat 23 Apr 10:33:12 10:37:02 20° 255° (WSW) 10:40:52 145.825 MHz
Oscar 11 23 Apr 11:09:17 11:13:07 31° 288° (WNW) 11:16:57 145.825 FM, Beacon 2401.500 USB
FUNcube-1 23 Apr 11:11:31 11:15:51 79° 102° (ESE) 11:20:17 145.950 - 145.970 MHz USB
KITSAT 1 23 Apr 11:53:14 12:01:21 82° 246° (WSW) 12:09:23 435.175 FM
HO-68 23 Apr 12:01:02 12:03:52 13° 303° (WNW) 12:06:42 435.675 MHz FM
Oscar 19 23 Apr 12:27:13 12:30:14 16° 66° (ENE) 12:33:15 437.125 CW, 437.150 USB
Oscar 16 23 Apr 12:35:26 12:39:12 21° 68° (ENE) 12:42:59 437.025 USB, Beacon 2401.1428
ISS 23 Apr 12:39:55 12:43:00 37° 131° (SE) 12:46:07 145.800 FM
Uribyol 2 23 Apr 13:18:05 13:22:26 28° 70° (ENE) 13:26:47 436.500 FM
AO-Echo 23 Apr 13:31:53 13:36:20 29° 71° (ENE) 13:40:41 ?
SO-50 23 Apr 13:52:11 13:56:31 52° 115° (ESE) 14:00:53 436.795 FM
KITSAT 1 23 Apr 13:52:59 13:55:30 12° 260° (W) 13:58:01 435.175 FM
AO-27 23 Apr 13:59:41 14:04:51 74° 75° (ENE) 14:10:01 436.795 MHz FM
Oscar 19 23 Apr 14:04:08 14:09:06 51° 260° (W) 14:14:07 437.125 CW, 437.150 USB
RS-15 23 Apr 14:07:17 14:16:44 32° 47° (NE) 14:26:19 29.354 - 29.394 USB, Beacon 29.352 USB
ITAMSAT 1 23 Apr 14:09:10 14:14:22 90° 76° (ENE) 14:19:33 435.822 SSB
Oscar 16 23 Apr 14:13:31 14:18:15 37° 262° (W) 14:23:01 437.025 USB, Beacon 2401.1428
ISS 23 Apr 14:17:25 14:19:49 18° 326° (NW) 14:22:13 145.800 FM
Gurwin Techsat 1B 23 Apr 14:17:51 14:22:28 31° 70° (ENE) 14:27:05 435.225 FM
Uribyol 2 23 Apr 14:57:27 15:01:48 27° 263° (W) 15:06:09 436.500 FM
TMSAT-1 23 Apr 15:02:27 15:07:39 61° 74° (ENE) 15:12:52 436.925 FM
OPAL 23 Apr 15:05:32 15:10:30 43° 101° (E) 15:15:25 ?
AO-Echo 23 Apr 15:10:37 15:14:59 27° 263° (W) 15:19:18 ?
JAS-1B 23 Apr 15:24:46 15:32:39 58° 73° (ENE) 15:39:15 435.800 - 435.900 CW/SSB
AO-7 23 Apr 15:30:28 15:37:56 40° 65° (ENE) 15:45:25 29.400 - 29.500 MHz
Uosat F 23 Apr 15:32:33 15:37:14 41° 72° (ENE) 15:41:55 435.120 FM
SO-50 23 Apr 15:34:53 15:37:22 15° 311° (NW) 15:39:52 436.795 FM
UOSAT-12 23 Apr 15:49:47 15:54:04 44° 114° (ESE) 15:58:26 437.025 FM, 437.400 FM
Gurwin Techsat 1B 23 Apr 15:58:00 16:02:22 26° 264° (W) 16:06:45 435.225 FM
RS-15 23 Apr 16:18:57 16:29:48 69° 247° (WSW) 16:41:03 29.354 - 29.394 USB, Beacon 29.352 USB
OPAL 23 Apr 16:45:22 16:49:00 20° 295° (WNW) 16:52:39 ?
TMSAT-1 23 Apr 16:45:42 16:47:54 13° 268° (W) 16:50:06 436.925 FM
Uosat F 23 Apr 17:12:48 17:16:07 18° 265° (W) 17:19:27 435.120 FM
JAS-1B 23 Apr 17:17:21 17:23:15 22° 263° (W) 17:28:32 435.800 - 435.900 CW/SSB
AO-7 23 Apr 17:23:00 17:30:34 39° 260° (W) 17:38:11 29.400 - 29.500 MHz
UOSAT-12 23 Apr 17:31:20 17:34:24 18° 310° (NW) 17:37:31 437.025 FM, 437.400 FM
AO-40 23 Apr 18:23:44 09:16:46 45° 181° (S) 18:45:27 Beacon 2401.320
SO-67 23 Apr 18:27:56 18:29:56 15° 71° (ENE) 18:31:56 435.3500 MHz FM
Hamsat 23 Apr 18:32:38 18:36:46 57° 260° (W) 18:40:57 145.90 MHz
Saudisat 1A 23 Apr 18:49:22 18:53:34 43° 58° (ENE) 18:57:43 436.775 MHz
JAS-2 23 Apr 19:00:16 19:06:05 77° 76° (ENE) 19:11:24 435.800 - 435.900 CW/SSB, 435.910 FM
MaSat-1 23 Apr 19:26:56 19:28:14 12° 109° (ESE) 19:29:28 437.345 MHz
STRAND 1 23 Apr 19:29:49 19:34:56 85° 284° (WNW) 19:40:01 ?
SO-67 23 Apr 20:00:04 20:02:51 22° 264° (W) 20:05:40 435.3500 MHz FM
Saudisat 1A 23 Apr 20:30:28 20:32:45 14° 252° (WSW) 20:35:01 436.775 MHz
HO-68 23 Apr 20:33:38 20:40:23 48° 69° (ENE) 20:47:10 435.675 MHz FM
ISS 23 Apr 20:48:29 20:51:49 69° 43° (NE) 20:55:08 145.800 FM
MaSat-1 23 Apr 21:04:48 21:06:25 14° 296° (WNW) 21:07:57 437.345 MHz
Oscar 11 23 Apr 21:59:21 22:03:38 70° 259° (WSW) 22:07:56 145.825 FM, Beacon 2401.500 USB
FUNcube-1 23 Apr 22:04:17 22:08:04 34° 73° (ENE) 22:11:51 145.950 - 145.970 MHz USB
HO-68 23 Apr 22:22:27 22:28:13 26° 263° (W) 22:34:01 435.675 MHz FM
SO-50 23 Apr 22:29:00 22:31:58 17° 51° (NE) 22:34:57 436.795 FM
Sapphire 23 Apr 22:42:02 22:46:52 35° 109° (ESE) 22:51:45 437.095 MHz 1200 baud AX-25 AFSK
PCSat 23 Apr 23:25:46 23:31:10 82° 295° (WNW) 23:36:36 145.825 MHz
FUNcube-1 23 Apr 23:42:21 23:44:34 14° 266° (W) 23:46:47 145.950 - 145.970 MHz USB
SO-50 24 Apr 00:08:15 00:12:47 50° 245° (WSW) 00:17:21 436.795 FM
KITSAT 1 24 Apr 00:23:23 00:29:18 23° 104° (ESE) 00:35:12 435.175 FM
UOSAT-12 24 Apr 00:24:59 00:27:24 14° 48° (NE) 00:29:48 437.025 FM, 437.400 FM
Sapphire 24 Apr 00:25:48 00:30:17 26° 304° (WNW) 00:34:49 437.095 MHz 1200 baud AX-25 AFSK
PCSat 24 Apr 01:14:36 01:15:23 10° 312° (NW) 01:16:10 145.825 MHz
Uribyol 2 24 Apr 01:36:28 01:39:11 14° 93° (E) 01:41:52 436.500 FM
AO-Echo 24 Apr 01:45:56 01:47:19 11° 92° (E) 01:48:41 ?
UOSAT-12 24 Apr 02:03:18 02:07:58 63° 244° (WSW) 02:12:33 437.025 FM, 437.400 FM
KITSAT 1 24 Apr 02:15:57 02:23:58 65° 299° (WNW) 02:32:03 435.175 FM
OPAL 24 Apr 02:16:13 02:21:00 46° 71° (ENE) 02:25:53 ?
AO-27 24 Apr 02:17:32 02:22:21 38° 99° (E) 02:27:08 436.795 MHz FM
Oscar 19 24 Apr 02:20:04 02:25:18 83° 103° (ESE) 02:30:29 437.125 CW, 437.150 USB
ITAMSAT 1 24 Apr 02:26:46 02:31:45 47° 100° (E) 02:36:42 435.822 SSB
Oscar 16 24 Apr 02:29:17 02:34:29 74° 285° (WNW) 02:39:39 437.025 USB, Beacon 2401.1428
Gurwin Techsat 1B 24 Apr 02:39:18 02:42:50 18° 94° (E) 02:46:20 435.225 FM
Uribyol 2 24 Apr 03:13:51 03:18:53 53° 287° (WNW) 03:23:56 436.500 FM
JAS-1B 24 Apr 03:16:11 03:19:18 15° 95° (E) 03:22:33 435.800 - 435.900 CW/SSB
AO-Echo 24 Apr 03:21:47 03:26:23 54° 286° (WNW) 03:30:56 ?
TMSAT-1 24 Apr 03:23:09 03:27:58 35° 98° (E) 03:32:46 436.925 FM
AO-7 24 Apr 03:39:09 03:43:26 15° 93° (E) 03:47:41 29.400 - 29.500 MHz
Uosat F 24 Apr 03:45:43 03:49:07 18° 95° (E) 03:52:29 435.120 FM
OPAL 24 Apr 03:57:01 04:00:05 16° 264° (W) 04:03:11 ?
AO-27 24 Apr 03:57:46 04:01:34 21° 293° (WNW) 04:05:21 436.795 MHz FM
ITAMSAT 1 24 Apr 04:07:31 04:10:49 17° 294° (WNW) 04:14:08 435.822 SSB
KITSAT 1 24 Apr 04:17:22 04:21:02 13° 320° (NW) 04:24:42 435.175 FM
Gurwin Techsat 1B 24 Apr 04:17:55 04:22:56 44° 288° (WNW) 04:27:56 435.225 FM
RS-15 24 Apr 04:26:39 04:35:42 28° 104° (ESE) 04:44:27 29.354 - 29.394 USB, Beacon 29.352 USB
TMSAT-1 24 Apr 05:03:33 05:07:38 23° 292° (WNW) 05:11:44 436.925 FM
JAS-1B 24 Apr 05:04:36 05:10:11 57° 286° (WNW) 05:16:19 435.800 - 435.900 CW/SSB
PANSAT 24 Apr 05:06:33 05:09:07 17° 159° (SSE) 05:11:41 not established
Uosat F 24 Apr 05:23:21 05:27:59 39° 288° (WNW) 05:32:37 435.120 FM
AO-7 24 Apr 05:28:36 05:36:57 88° 288° (WNW) 05:45:19 29.400 - 29.500 MHz
MaSat-1 24 Apr 05:30:22 05:32:48 19° 65° (ENE) 05:35:32 437.345 MHz
JAS-2 24 Apr 06:16:33 06:17:41 11° 94° (E) 06:18:49 435.800 - 435.900 CW/SSB, 435.910 FM
Hamsat 24 Apr 06:23:04 06:27:03 34° 98° (E) 06:31:02 145.90 MHz
RS-15 24 Apr 06:35:50 06:47:10 67° 301° (WNW) 06:58:08 29.354 - 29.394 USB, Beacon 29.352 USB
STRAND 1 24 Apr 06:41:16 06:46:23 88° 76° (ENE) 06:51:30 ?
PANSAT 24 Apr 06:45:19 06:48:55 37° 171° (S) 06:52:30 not established
MaSat-1 24 Apr 07:08:28 07:11:02 19° 251° (WSW) 07:13:55 437.345 MHz
